TURKSAT 4B

Last updated on Thu Nov 21 2024 00:02:43 GMT+0000 (Coordinated Universal Time)

1 40984U 15060A 24324.59051588 .00000116 00000+0 00000+0 0 9999 2 40984 0.0605 93.6064 0000659 101.4362 126.6009 1.00272506 33332
UTC large
Height (km)
Speed (km/s)
/
Latitude / Longitude
Inclination (degrees)
Orbital Period (minutes)
Azimuth
Elevation
Range (km)
Doppler Factor

Next 0 passes for location: London (51.5072 / 0.1276)

Sorry there are no passes over London.